W7KKE-3 Weather Reports


Display with metric or nautical units.
time (UTC)temp
F
wind
direction
speed
MPH
gust
MPH
rain 1hr
in
rain 24hr
in
rain mn
in
humidity
%
barometer
mb
20150524111105 54 334 0.0 4.0 0.00 0.03 0.00 88 1022.4
20150524110605 54 0 0.0 0.0 0.00 0.03 0.00 88 1022.4
20150524110106 54 0 0.0 0.0 0.00 0.04 0.00 88 1022.5
20150524105605 54 0 0.0 0.0 0.00 0.04 0.00 87 1022.5
20150524105105 54 0 0.0 9.0 0.00 0.04 0.00 87 1022.6
20150524104605 54 0 0.0 9.0 0.00 0.04 0.00 87 1022.7
20150524104105 54 336 0.0 9.0 0.00 0.04 0.00 87 1022.7
20150524103605 54 334 4.0 11.0 0.00 0.04 0.00 87 1022.7
20150524103105 54 344 0.0 11.0 0.00 0.04 0.00 87 1022.8
20150524102605 54 341 1.0 11.0 0.00 0.04 0.00 87 1022.8
20150524102105 54 337 3.0 9.0 0.00 0.04 0.00 87 1022.7
20150524101605 54 336 2.0 9.0 0.00 0.04 0.00 88 1022.8
20150524101105 54 309 5.0 8.0 0.00 0.04 0.00 88 1022.8
20150524100605 54 343 5.0 8.0 0.00 0.04 0.00 88 1022.9
20150524100105 54 320 4.0 7.0 0.00 0.06 0.00 88 1022.9
20150524095605 54 340 0.0 7.0 0.00 0.06 0.00 88 1023.0
20150524095105 54 333 1.0 7.0 0.00 0.06 0.00 88 1023.0
20150524094605 54 347 0.0 7.0 0.00 0.06 0.00 88 1023.0
20150524094105 54 341 0.0 7.0 0.00 0.06 0.00 88 1023.0
20150524093605 54 347 1.0 6.0 0.00 0.06 0.00 88 1023.0
20150524093105 54 340 0.0 6.0 0.00 0.06 0.00 88 1023.0
20150524092605 54 14 1.0 4.0 0.00 0.06 0.00 88 1023.1
20150524092105 54 0 0.0 9.0 0.00 0.06 0.00 88 1023.1
20150524091605 54 355 0.0 9.0 0.00 0.06 0.00 88 1023.1
20150524090106 54 0 0.0 0.0 0.00 0.07 0.00 88 1023.1
20150524085605 54 333 0.0 6.0 0.00 0.07 0.00 88 1023.3
20150524085105 54 42 0.0 6.0 0.00 0.07 0.00 88 1023.3
20150524084605 54 14 1.0 6.0 0.00 0.07 0.00 88 1023.3
20150524084105 54 331 2.0 6.0 0.00 0.07 0.00 88 1023.4
20150524082105 54 320 3.0 5.0 0.00 0.07 0.00 88 1023.5
20150524081605 54 0 0.0 5.0 0.00 0.07 0.00 88 1023.5
20150524081105 54 2 0.0 5.0 0.00 0.07 0.00 88 1023.6
20150524080605 54 351 1.0 6.0 0.00 0.07 0.00 88 1023.5
20150524080105 54 323 0.0 6.0 0.00 0.08 0.00 88 1023.5
20150524075605 54 331 1.0 6.0 0.00 0.08 0.00 88 1023.5
20150524075105 54 0 3.0 3.0 0.00 0.08 0.00 88 1023.5
20150524074605 54 12 0.0 3.0 0.00 0.08 0.00 88 1023.5
20150524074105 54 329 0.0 3.0 0.00 0.08 0.00 88 1023.6
20150524072605 54 0 0.0 3.0 0.00 0.08 0.00 88 1023.8
20150524072105 54 0 0.0 3.0 0.00 0.08 0.00 88 1023.8
20150524071605 54 330 0.0 3.0 0.00 0.08 0.00 88 1023.8
20150524071105 54 0 0.0 0.0 0.00 0.08 0.00 88 1023.9
20150524070605 54 0 0.0 0.0 0.00 0.08 0.00 88 1023.8
20150524064605 54 333 0.0 5.0 0.00 0.08 0.08 88 1023.8
20150524064105 54 333 0.0 5.0 0.00 0.08 0.08 88 1023.8
20150524063605 54 0 1.0 6.0 0.00 0.08 0.08 88 1023.8
20150524063105 54 0 0.0 6.0 0.00 0.08 0.08 88 1023.8
20150524062605 54 334 0.0 6.0 0.00 0.08 0.08 88 1023.8
20150524062106 55 0 3.0 7.0 0.00 0.08 0.08 88 1023.7
20150524061605 55 0 0.0 7.0 0.00 0.08 0.08 88 1023.8
20150524061105 55 351 0.0 7.0 0.00 0.08 0.08 88 1023.8
20150524060605 55 337 1.0 5.0 0.00 0.08 0.08 88 1023.8
20150524060105 55 340 0.0 5.0 0.00 0.08 0.08 88 1023.8
20150524055605 55 357 1.0 5.0 0.00 0.08 0.08 88 1023.8
20150524055105 55 316 2.0 6.0 0.00 0.08 0.08 88 1023.9
20150524054605 55 336 1.0 6.0 0.00 0.08 0.08 88 1023.8
20150524054106 55 341 0.0 6.0 0.00 0.08 0.08 88 1023.8
20150524053605 55 344 4.0 4.0 0.00 0.08 0.08 88 1023.8
20150524053105 55 338 0.0 6.0 0.00 0.08 0.08 87 1023.7
20150524052605 55 347 0.0 6.0 0.00 0.08 0.08 87 1023.6
20150524052106 55 333 0.0 6.0 0.00 0.08 0.08 87 1023.6
20150524051605 55 329 2.0 7.0 0.00 0.08 0.08 87 1023.6
20150524051105 55 329 1.0 7.0 0.00 0.08 0.08 87 1023.7
20150524050605 55 337 0.0 7.0 0.00 0.08 0.08 87 1023.6
20150524050105 55 326 3.0 3.0 0.00 0.08 0.08 87 1023.6
20150524045605 55 0 0.0 0.0 0.00 0.08 0.08 87 1023.7
20150524045105 55 343 0.0 10.0 0.00 0.08 0.08 87 1023.7
20150524044605 55 320 0.0 10.0 0.00 0.08 0.08 87 1023.6
20150524044105 55 341 4.0 10.0 0.00 0.08 0.08 87 1023.6
20150524043605 55 334 6.0 9.0 0.00 0.08 0.08 87 1023.6
20150524043105 55 309 6.0 9.0 0.00 0.08 0.08 87 1023.6
20150524042605 55 302 5.0 7.0 0.00 0.08 0.08 87 1023.6
20150524042105 55 336 5.0 10.0 0.00 0.08 0.08 87 1023.7
20150524041605 55 315 6.0 10.0 0.00 0.08 0.08 87 1023.7
20150524041105 55 317 6.0 10.0 0.00 0.08 0.08 87 1023.7
20150524040605 55 341 7.0 10.0 0.00 0.08 0.08 87 1023.8
20150524040105 55 323 6.0 10.0 0.00 0.08 0.08 86 1023.8
20150524035605 56 330 6.0 10.0 0.00 0.08 0.08 86 1023.8
20150524035105 56 313 5.0 10.0 0.00 0.08 0.08 86 1023.6
20150524034605 56 323 5.0 10.0 0.00 0.08 0.08 86 1023.6
20150524034105 56 329 7.0 12.0 0.00 0.08 0.08 86 1023.5
20150524033605 56 331 6.0 12.0 0.00 0.08 0.08 86 1023.4
20150524033105 56 337 6.0 12.0 0.00 0.08 0.08 86 1023.3
20150524032605 56 319 8.0 13.0 0.00 0.08 0.08 86 1023.4
20150524032105 56 337 8.0 13.0 0.00 0.08 0.08 86 1023.4
20150524031605 56 326 4.0 13.0 0.00 0.08 0.08 86 1023.4
20150524031105 56 308 9.0 13.0 0.00 0.08 0.08 85 1023.3
20150524030605 56 345 8.0 13.0 0.00 0.08 0.08 86 1023.3
20150524030105 56 317 9.0 13.0 0.00 0.08 0.08 86 1023.3
20150524025605 56 316 8.0 13.0 0.00 0.08 0.08 86 1023.3
20150524025105 56 341 6.0 13.0 0.00 0.08 0.08 85 1023.3
20150524024605 56 338 6.0 13.0 0.00 0.08 0.08 85 1023.3
20150524024105 57 308 9.0 13.0 0.00 0.08 0.08 85 1023.3
20150524023605 57 322 8.0 13.0 0.00 0.08 0.08 85 1023.3
20150524023105 57 309 8.0 13.0 0.00 0.08 0.08 85 1023.3
20150524022605 57 316 8.0 13.0 0.00 0.08 0.08 85 1023.3
20150524022105 57 324 9.0 12.0 0.00 0.08 0.08 85 1023.1
20150524021605 57 299 7.0 12.0 0.00 0.08 0.08 85 1023.1
20150524021105 57 312 6.0 15.0 0.00 0.08 0.08 85 1023.1
20150524020605 57 322 8.0 15.0 0.00 0.08 0.08 84 1023.1
20150524020105 57 323 8.0 15.0 0.00 0.08 0.08 84 1023.1
20150524015605 57 334 9.0 14.0 0.00 0.08 0.08 84 1023.1
20150524015105 58 310 8.0 14.0 0.00 0.08 0.08 84 1023.0
20150524014605 58 305 10.0 13.0 0.00 0.08 0.08 83 1023.1
20150524014105 58 313 9.0 13.0 0.00 0.08 0.08 83 1023.0
20150524013605 58 312 10.0 13.0 0.00 0.08 0.08 83 1022.9
20150524013105 58 305 8.0 13.0 0.00 0.08 0.08 83 1023.0
20150524012605 58 296 9.0 13.0 0.00 0.08 0.08 83 1023.1
20150524012105 58 313 8.0 12.0 0.00 0.08 0.08 83 1023.2
20150524011605 58 306 8.0 12.0 0.00 0.08 0.08 83 1023.2
20150524011105 58 322 9.0 12.0 0.00 0.08 0.08 84 1023.2
20150524010605 58 336 7.0 12.0 0.00 0.08 0.08 84 1023.3
20150524010105 58 303 9.0 12.0 0.00 0.08 0.08 83 1023.3
20150524005605 58 305 8.0 11.0 0.00 0.08 0.08 84 1023.4
20150524005105 58 322 6.0 10.0 0.00 0.08 0.08 84 1023.4
20150524004605 58 315 6.0 12.0 0.00 0.08 0.08 84 1023.4
20150524004105 58 316 7.0 12.0 0.00 0.08 0.08 84 1023.5
20150524003605 58 310 9.0 12.0 0.00 0.08 0.08 84 1023.5
20150524003105 58 308 7.0 16.0 0.00 0.08 0.08 85 1023.5
20150524001605 58 320 10.0 14.0 0.00 0.08 0.08 84 1023.7
20150524001105 59 320 9.0 15.0 0.00 0.08 0.08 85 1023.8
20150524000604 59 319 10.0 15.0 0.00 0.08 0.08 85 1023.9
20150524000104 58 343 10.0 15.0 0.00 0.08 0.08 85 1023.9
20150523235605 58 340 9.0 14.0 0.00 0.08 0.08 85 1024.0
20150523235104 59 322 8.0 14.0 0.00 0.08 0.08 85 1024.1
20150523234605 59 313 10.0 14.0 0.00 0.08 0.08 85 1024.1
20150523234104 59 319 10.0 16.0 0.00 0.08 0.08 85 1024.1
20150523233605 59 343 10.0 16.0 0.00 0.08 0.08 84 1024.0
20150523233104 59 323 11.0 16.0 0.00 0.08 0.08 84 1023.9
20150523232605 60 315 10.0 15.0 0.00 0.08 0.08 83 1023.8
20150523232104 60 319 10.0 17.0 0.00 0.08 0.08 83 1023.8
20150523231604 60 298 9.0 17.0 0.00 0.08 0.08 82 1023.8
20150523231105 61 315 10.0 17.0 0.00 0.08 0.08 81 1023.8
20150523230604 61 319 11.0 16.0 0.00 0.08 0.08 81 1023.8
20150523230104 61 315 9.0 16.0 0.00 0.08 0.08 81 1023.7
20150523225604 61 316 10.0 16.0 0.00 0.08 0.08 81 1023.7
20150523223604 61 315 10.0 15.0 0.00 0.08 0.08 82 1023.8
20150523223104 60 309 10.0 15.0 0.00 0.08 0.08 81 1023.8
20150523222604 60 320 10.0 18.0 0.00 0.08 0.08 82 1023.8
20150523222105 61 299 11.0 18.0 0.00 0.08 0.08 82 1023.9
20150523221604 61 330 9.0 18.0 0.00 0.08 0.08 82 1023.9
20150523221104 61 333 9.0 18.0 0.00 0.08 0.08 83 1023.9
20150523220604 61 330 11.0 17.0 0.00 0.08 0.08 82 1023.9
20150523220104 61 308 10.0 17.0 0.00 0.08 0.08 82 1023.8
20150523215604 61 312 11.0 17.0 0.00 0.08 0.08 83 1023.8
20150523215104 61 315 8.0 16.0 0.00 0.08 0.08 82 1023.9
20150523214604 62 308 11.0 16.0 0.00 0.08 0.08 82 1024.0
20150523214105 62 323 10.0 16.0 0.00 0.08 0.08 82 1023.9
20150523213604 62 327 12.0 16.0 0.00 0.08 0.08 82 1024.0
20150523213104 62 329 9.0 16.0 0.00 0.08 0.08 82 1023.9
20150523212604 62 299 10.0 15.0 0.00 0.08 0.08 82 1023.9
20150523212104 62 313 10.0 15.0 0.00 0.08 0.08 82 1023.9
20150523211604 62 323 9.0 18.0 0.00 0.08 0.08 81 1023.9
20150523210104 62 324 10.0 15.0 0.00 0.08 0.08 82 1024.0
20150523205104 63 299 10.0 18.0 0.00 0.08 0.08 82 1024.0
20150523204604 63 320 11.0 18.0 0.00 0.08 0.08 83 1024.0
20150523204104 62 317 10.0 16.0 0.00 0.08 0.08 84 1024.0
20150523203604 62 306 11.0 16.0 0.00 0.08 0.08 83 1024.0
20150523203104 62 337 11.0 15.0 0.00 0.08 0.08 84 1024.0
20150523202604 62 326 11.0 15.0 0.00 0.08 0.08 84 1024.0
20150523202104 62 310 11.0 15.0 0.00 0.08 0.08 85 1024.0
20150523201604 62 327 10.0 14.0 0.00 0.08 0.08 85 1024.0
20150523201104 61 336 11.0 13.0 0.00 0.08 0.08 86 1024.0
20150523200604 61 317 10.0 15.0 0.00 0.08 0.08 87 1024.0
20150523200104 61 327 9.0 15.0 0.00 0.08 0.08 87 1024.0
20150523195604 61 315 11.0 15.0 0.00 0.08 0.08 87 1024.0
20150523194104 60 323 9.0 14.0 0.00 0.08 0.08 88 1024.1
20150523193604 60 316 8.0 14.0 0.00 0.08 0.08 88 1024.1
20150523191604 60 315 7.0 13.0 0.01 0.08 0.08 90 1024.0
20150523191104 60 329 7.0 11.0 0.01 0.08 0.08 92 1024.0
20150523190604 59 326 7.0 12.0 0.01 0.08 0.08 91 1023.9
20150523190104 59 330 8.0 12.0 0.01 0.08 0.08 92 1024.0
20150523185604 59 315 8.0 12.0 0.01 0.08 0.08 92 1024.0
20150523185104 59 333 7.0 12.0 0.01 0.08 0.08 92 1024.1
20150523184604 59 323 8.0 12.0 0.01 0.08 0.08 93 1024.0
20150523184104 58 291 7.0 9.0 0.01 0.08 0.08 93 1024.1
20150523183604 58 285 5.0 8.0 0.01 0.08 0.08 92 1024.0
20150523183104 58 302 5.0 7.0 0.01 0.08 0.08 92 1023.9
20150523182604 58 301 4.0 7.0 0.01 0.08 0.08 92 1023.9
20150523182104 58 310 3.0 7.0 0.00 0.07 0.07 92 1023.9
20150523180604 58 274 5.0 8.0 0.00 0.07 0.07 92 1023.9
20150523180104 59 306 5.0 7.0 0.00 0.07 0.07 92 1024.0
20150523175604 59 320 4.0 7.0 0.00 0.07 0.07 92 1024.0
20150523173604 58 282 3.0 7.0 0.00 0.07 0.07 93 1024.1
20150523173104 57 305 2.0 6.0 0.00 0.07 0.07 93 1024.1
20150523172604 57 299 0.0 6.0 0.00 0.07 0.07 93 1024.0
20150523172104 57 275 3.0 6.0 0.00 0.07 0.07 94 1024.0
20150523171604 57 305 5.0 5.0 0.00 0.07 0.07 94 1024.0
20150523171104 57 280 2.0 5.0 0.00 0.07 0.07 94 1024.0
20150523170604 56 0 1.0 1.0 0.00 0.07 0.07 94 1024.0
20150523165604 56 0 0.0 0.0 0.00 0.08 0.07 94 1024.0
20150523165104 56 0 0.0 0.0 0.00 0.08 0.07 94 1024.0
20150523164604 56 0 0.0 0.0 0.00 0.08 0.07 94 1023.9
20150523164104 56 0 0.0 0.0 0.00 0.08 0.07 94 1024.0
20150523163604 56 308 0.0 6.0 0.00 0.08 0.07 94 1023.9
20150523163104 56 312 3.0 6.0 0.00 0.08 0.07 94 1023.9
20150523162604 56 341 3.0 6.0 0.00 0.08 0.07 94 1023.9
20150523162104 56 309 5.0 6.0 0.00 0.08 0.07 94 1024.0
20150523161604 56 308 2.0 4.0 0.00 0.08 0.07 94 1024.0
20150523160104 56 0 0.0 0.0 0.00 0.09 0.07 94 1024.1
20150523155604 55 0 0.0 0.0 0.00 0.09 0.07 94 1024.1
20150523155104 55 0 0.0 0.0 0.00 0.09 0.07 86 1024.2
20150523154604 55 0 0.0 0.0 0.00 0.09 0.07 94 1024.1
20150523154104 55 0 0.0 0.0 0.00 0.09 0.07 94 1024.0
20150523153604 55 0 0.0 0.0 0.00 0.09 0.07 94 1024.0
20150523153104 55 0 0.0 0.0 0.00 0.09 0.07 94 1023.8
20150523152604 55 0 0.0 0.0 0.00 0.09 0.07 94 1023.7
20150523152104 55 0 0.0 0.0 0.00 0.09 0.07 94 1023.7
20150523151604 55 0 0.0 0.0 0.00 0.09 0.07 94 1023.6
20150523151104 55 0 0.0 0.0 0.00 0.09 0.07 94 1023.6
20150523145104 55 0 0.0 0.0 0.00 0.09 0.07 94 1023.5
20150523144604 55 0 0.0 0.0 0.00 0.09 0.07 94 1023.5
20150523144104 55 0 0.0 0.0 0.00 0.09 0.07 94 1023.4
20150523143604 55 0 0.0 0.0 0.00 0.09 0.07 94 1023.3
20150523143104 55 0 0.0 0.0 0.00 0.09 0.07 94 1023.1
20150523142604 55 0 0.0 0.0 0.00 0.09 0.07 95 1023.0
20150523142104 54 0 0.0 0.0 0.00 0.09 0.07 95 1022.7
20150523141604 54 0 0.0 0.0 0.00 0.09 0.07 94 1022.7
20150523141104 54 0 0.0 0.0 0.00 0.09 0.07 94 1022.6
20150523140604 54 0 0.0 0.0 0.00 0.09 0.07 94 1022.6
20150523140104 54 0 0.0 0.0 0.00 0.09 0.07 94 1022.5
20150523135604 54 0 0.0 0.0 0.00 0.09 0.07 94 1022.4
20150523135104 54 0 0.0 0.0 0.00 0.09 0.07 94 1022.4
20150523134604 54 0 0.0 0.0 0.00 0.09 0.07 94 1022.4
20150523134104 54 0 0.0 0.0 0.00 0.09 0.07 94 1022.3
20150523133604 54 0 0.0 0.0 0.00 0.09 0.07 94 1022.2
20150523133104 54 0 0.0 0.0 0.00 0.09 0.07 94 1022.1
20150523132604 54 0 0.0 0.0 0.00 0.09 0.07 94 1022.1
20150523132104 54 322 0.0 9.0 0.00 0.09 0.07 94 1022.1
20150523131604 54 345 0.0 9.0 0.00 0.09 0.07 94 1022.1
20150523131104 54 327 4.0 9.0 0.01 0.09 0.07 94 1022.0
20150523130604 54 323 5.0 9.0 0.01 0.09 0.07 94 1022.0
20150523130104 54 326 4.0 8.0 0.01 0.09 0.07 94 1022.0
20150523125604 54 341 5.0 8.0 0.01 0.09 0.07 94 1021.9
20150523125104 54 310 3.0 8.0 0.02 0.09 0.07 94 1021.9
20150523124604 54 347 4.0 5.0 0.02 0.09 0.07 94 1021.8
20150523124104 54 340 1.0 8.0 0.02 0.09 0.07 94 1021.8
20150523123604 54 344 4.0 8.0 0.02 0.09 0.07 94 1021.8
20150523123105 54 340 3.0 8.0 0.02 0.09 0.07 94 1021.8
20150523122604 54 319 3.0 6.0 0.02 0.09 0.07 94 1021.7
20150523122104 54 324 2.0 6.0 0.02 0.09 0.07 94 1021.7
20150523121604 54 305 4.0 6.0 0.02 0.09 0.07 94 1021.7
20150523121104 54 0 0.0 0.0 0.01 0.09 0.06 94 1021.7
20150523120604 54 0 0.0 0.0 0.01 0.09 0.06 94 1021.7
20150523120104 54 0 0.0 0.0 0.01 0.10 0.06 94 1021.7
20150523115604 54 0 0.0 0.0 0.01 0.10 0.06 94 1021.7
20150523115104 54 0 0.0 0.0 0.00 0.10 0.05 94 1021.8
20150523114604 54 0 0.0 0.0 0.00 0.10 0.05 94 1021.7
20150523114104 54 0 0.0 0.0 0.01 0.10 0.05 94 1021.7
20150523113604 54 0 0.0 0.0 0.01 0.10 0.05 94 1021.7
20150523113105 54 0 0.0 0.0 0.01 0.10 0.05 94 1021.7
20150523112604 54 0 0.0 0.0 0.01 0.10 0.05 94 1021.7
20150523112104 54 0 0.0 0.0 0.01 0.10 0.05 94 1021.7
20150523111604 54 0 0.0 0.0 0.01 0.10 0.05 94 1021.8